Year,Month,Day,Hour,Minute,Value (Times are PST for temperature in C)
2010,03,27,00,00,6.30
2010,03,27,00,01,6.40
2010,03,27,00,02,6.40
2010,03,27,00,03,6.40
2010,03,27,00,04,6.40
2010,03,27,00,05,6.40
2010,03,27,00,06,6.40
2010,03,27,00,07,6.40
2010,03,27,00,08,6.40
2010,03,27,00,09,6.40
2010,03,27,00,10,6.40
2010,03,27,00,11,6.40
2010,03,27,00,12,6.40
2010,03,27,00,13,6.40
2010,03,27,00,14,6.40
2010,03,27,00,15,6.40
2010,03,27,00,16,6.40
2010,03,27,00,17,6.40
2010,03,27,00,18,6.40
2010,03,27,00,19,6.40
2010,03,27,00,20,6.40
2010,03,27,00,21,6.40
2010,03,27,00,22,6.40
2010,03,27,00,23,6.40
2010,03,27,00,24,6.40
2010,03,27,00,25,6.40
2010,03,27,00,26,6.40
2010,03,27,00,27,6.40
2010,03,27,00,28,6.40
2010,03,27,00,29,6.40
2010,03,27,00,30,6.40
2010,03,27,00,31,6.40
2010,03,27,00,32,6.40
2010,03,27,00,33,6.40
2010,03,27,00,34,6.40
2010,03,27,00,35,6.40
2010,03,27,00,36,6.40
2010,03,27,00,37,6.40
2010,03,27,00,38,6.40
2010,03,27,00,39,6.40
2010,03,27,00,40,6.40
2010,03,27,00,41,6.40
2010,03,27,00,42,6.40
2010,03,27,00,43,6.40
2010,03,27,00,44,6.40
2010,03,27,00,45,6.40
2010,03,27,00,46,6.40
2010,03,27,00,47,6.40
2010,03,27,00,48,6.40
2010,03,27,00,49,6.40
2010,03,27,00,50,6.40
2010,03,27,00,51,6.40
2010,03,27,00,52,6.40
2010,03,27,00,53,6.40
2010,03,27,00,54,6.40
2010,03,27,00,55,6.40
2010,03,27,00,56,6.40
2010,03,27,00,57,6.40
2010,03,27,00,58,6.40
2010,03,27,00,59,6.40
2010,03,27,01,00,6.40
2010,03,27,01,01,6.40
2010,03,27,01,02,6.40
2010,03,27,01,03,6.40
2010,03,27,01,04,6.40
2010,03,27,01,05,6.40
2010,03,27,01,06,6.40
2010,03,27,01,07,6.40
2010,03,27,01,08,6.40
2010,03,27,01,09,6.40
2010,03,27,01,10,6.40
2010,03,27,01,11,6.40
2010,03,27,01,12,6.40
2010,03,27,01,13,6.40
2010,03,27,01,14,6.40
2010,03,27,01,15,6.40
2010,03,27,01,16,6.40
2010,03,27,01,17,6.40
2010,03,27,01,18,6.40
2010,03,27,01,19,6.40
2010,03,27,01,20,6.40
2010,03,27,01,21,6.40
2010,03,27,01,22,6.40
2010,03,27,01,23,6.40
2010,03,27,01,24,6.40
2010,03,27,01,25,6.40
2010,03,27,01,26,6.40
2010,03,27,01,27,6.40
2010,03,27,01,28,6.40
2010,03,27,01,29,6.40
2010,03,27,01,30,6.40
2010,03,27,01,31,6.40
2010,03,27,01,32,6.40
2010,03,27,01,33,6.40
2010,03,27,01,34,6.40
2010,03,27,01,35,6.40
2010,03,27,01,36,6.40
2010,03,27,01,37,6.40
2010,03,27,01,38,6.40
2010,03,27,01,39,6.40
2010,03,27,01,40,6.40
2010,03,27,01,41,6.40
2010,03,27,01,42,6.40
2010,03,27,01,43,6.40
2010,03,27,01,44,6.40
2010,03,27,01,45,6.50
2010,03,27,01,46,6.60
2010,03,27,01,47,6.60
2010,03,27,01,48,6.60
2010,03,27,01,49,6.60
2010,03,27,01,50,6.60
2010,03,27,01,51,6.60
2010,03,27,01,52,6.50
2010,03,27,01,53,6.40
2010,03,27,01,54,6.40
2010,03,27,01,55,6.40
2010,03,27,01,56,6.40
2010,03,27,01,57,6.40
2010,03,27,01,58,6.40
2010,03,27,01,59,6.40
2010,03,27,02,00,6.40
2010,03,27,02,01,6.40
2010,03,27,02,02,6.40
2010,03,27,02,03,6.40
2010,03,27,02,04,6.40
2010,03,27,02,05,6.40
2010,03,27,02,06,6.40
2010,03,27,02,07,6.40
2010,03,27,02,08,6.40
2010,03,27,02,09,6.40
2010,03,27,02,10,6.40
2010,03,27,02,11,6.40
2010,03,27,02,12,6.40
2010,03,27,02,13,6.40
2010,03,27,02,14,6.40
2010,03,27,02,15,6.40
2010,03,27,02,16,6.40
2010,03,27,02,17,6.40
2010,03,27,02,18,6.40
2010,03,27,02,19,6.40
2010,03,27,02,20,6.40
2010,03,27,02,21,6.40
2010,03,27,02,22,6.40
2010,03,27,02,23,6.40
2010,03,27,02,24,6.40
2010,03,27,02,25,6.40
2010,03,27,02,26,6.40
2010,03,27,02,27,6.40
2010,03,27,02,28,6.40
2010,03,27,02,29,6.40
2010,03,27,02,30,6.40
2010,03,27,02,31,6.40
2010,03,27,02,32,6.40
2010,03,27,02,33,6.40
2010,03,27,02,34,6.40
2010,03,27,02,35,6.40
2010,03,27,02,36,6.40
2010,03,27,02,37,6.40
2010,03,27,02,38,6.40
2010,03,27,02,39,6.40
2010,03,27,02,40,6.40
2010,03,27,02,41,6.40
2010,03,27,02,42,6.40
2010,03,27,02,43,6.40
2010,03,27,02,44,6.40
2010,03,27,02,45,6.40
2010,03,27,02,46,6.40
2010,03,27,02,47,6.40
2010,03,27,02,48,6.40
2010,03,27,02,49,6.40
2010,03,27,02,50,6.40
2010,03,27,02,51,6.40
2010,03,27,02,52,6.40
2010,03,27,02,53,6.40
2010,03,27,02,54,6.40
2010,03,27,02,55,6.40
2010,03,27,02,56,6.40
2010,03,27,02,57,6.40
2010,03,27,02,58,6.40
2010,03,27,02,59,6.40
2010,03,27,03,00,6.40
2010,03,27,03,01,6.40
2010,03,27,03,02,6.40
2010,03,27,03,03,6.40
2010,03,27,03,04,6.40
2010,03,27,03,05,6.40
2010,03,27,03,06,6.40
2010,03,27,03,07,6.40
2010,03,27,03,08,6.40
2010,03,27,03,09,6.40
2010,03,27,03,10,6.40
2010,03,27,03,11,6.40
2010,03,27,03,12,6.40
2010,03,27,03,13,6.40
2010,03,27,03,14,6.40
2010,03,27,03,15,6.40
2010,03,27,03,16,6.40
2010,03,27,03,17,6.40
2010,03,27,03,18,6.40
2010,03,27,03,19,6.40
2010,03,27,03,20,6.40
2010,03,27,03,21,6.40
2010,03,27,03,22,6.40
2010,03,27,03,23,6.40
2010,03,27,03,24,6.40
2010,03,27,03,25,6.40
2010,03,27,03,26,6.40
2010,03,27,03,27,6.40
2010,03,27,03,28,6.40
2010,03,27,03,29,6.40
2010,03,27,03,30,6.40
2010,03,27,03,31,6.40
2010,03,27,03,32,6.40
2010,03,27,03,33,6.40
2010,03,27,03,34,6.40
2010,03,27,03,35,6.40
2010,03,27,03,36,6.40
2010,03,27,03,37,6.40
2010,03,27,03,38,6.40
2010,03,27,03,39,6.40
2010,03,27,03,40,6.40
2010,03,27,03,41,6.40
2010,03,27,03,42,6.40
2010,03,27,03,43,6.40
2010,03,27,03,44,6.40
2010,03,27,03,45,6.40
2010,03,27,03,46,6.40
2010,03,27,03,47,6.40
2010,03,27,03,48,6.40
2010,03,27,03,49,6.40
2010,03,27,03,50,6.40
2010,03,27,03,51,6.40
2010,03,27,03,52,6.40
2010,03,27,03,53,6.40
2010,03,27,03,54,6.40
2010,03,27,03,55,6.40
2010,03,27,03,56,6.40
2010,03,27,03,57,6.40
2010,03,27,03,58,6.40
2010,03,27,03,59,6.40
2010,03,27,04,00,6.40
2010,03,27,04,01,6.40
2010,03,27,04,02,6.40
2010,03,27,04,03,6.40
2010,03,27,04,04,6.40
2010,03,27,04,05,6.40
2010,03,27,04,06,6.40
2010,03,27,04,07,6.40
2010,03,27,04,08,6.40
2010,03,27,04,09,6.40
2010,03,27,04,10,6.40
2010,03,27,04,11,6.40
2010,03,27,04,12,6.40
2010,03,27,04,13,6.40
2010,03,27,04,14,6.40
2010,03,27,04,15,6.40
2010,03,27,04,16,6.40
2010,03,27,04,17,6.40
2010,03,27,04,18,6.40
2010,03,27,04,19,6.40
2010,03,27,04,20,6.40
2010,03,27,04,21,6.40
2010,03,27,04,22,6.40
2010,03,27,04,23,6.40
2010,03,27,04,24,6.40
2010,03,27,04,25,6.40
2010,03,27,04,26,6.40
2010,03,27,04,27,6.40
2010,03,27,04,28,6.40
2010,03,27,04,29,6.40
2010,03,27,04,30,6.40
2010,03,27,04,31,6.40
2010,03,27,04,32,6.40
2010,03,27,04,33,6.40
2010,03,27,04,34,6.40
2010,03,27,04,35,6.40
2010,03,27,04,36,6.40
2010,03,27,04,37,6.40
2010,03,27,04,38,6.40
2010,03,27,04,39,6.40
2010,03,27,04,40,6.40
2010,03,27,04,41,6.40
2010,03,27,04,42,6.40
2010,03,27,04,43,6.40
2010,03,27,04,44,6.40
2010,03,27,04,45,6.40
2010,03,27,04,46,6.40
2010,03,27,04,47,6.40
2010,03,27,04,48,6.40
2010,03,27,04,49,6.40
2010,03,27,04,50,6.40
2010,03,27,04,51,6.40
2010,03,27,04,52,6.40
2010,03,27,04,53,6.40
2010,03,27,04,54,6.40
2010,03,27,04,55,6.40
2010,03,27,04,56,6.40
2010,03,27,04,57,6.40
2010,03,27,04,58,6.40
2010,03,27,04,59,6.40
2010,03,27,05,00,6.40
2010,03,27,05,01,6.40
2010,03,27,05,02,6.40
2010,03,27,05,03,6.40
2010,03,27,05,04,6.40
2010,03,27,05,05,6.40
2010,03,27,05,06,6.30
2010,03,27,05,07,6.30
2010,03,27,05,08,6.30
2010,03,27,05,09,6.30
2010,03,27,05,10,6.30
2010,03,27,05,11,6.30
2010,03,27,05,12,6.30
2010,03,27,05,13,6.30
2010,03,27,05,14,6.30
2010,03,27,05,15,6.30
2010,03,27,05,16,6.20
2010,03,27,05,17,6.20
2010,03,27,05,18,6.20
2010,03,27,05,19,6.20
2010,03,27,05,20,6.20
2010,03,27,05,21,6.20
2010,03,27,05,22,6.20
2010,03,27,05,23,6.20
2010,03,27,05,24,6.20
2010,03,27,05,25,6.20
2010,03,27,05,26,6.20
2010,03,27,05,27,6.20
2010,03,27,05,28,6.30
2010,03,27,05,29,6.30
2010,03,27,05,30,6.30
2010,03,27,05,31,6.40
2010,03,27,05,32,6.40
2010,03,27,05,33,6.40
2010,03,27,05,34,6.40
2010,03,27,05,35,6.40
2010,03,27,05,36,6.40
2010,03,27,05,37,6.40
2010,03,27,05,38,6.40
2010,03,27,05,39,6.50
2010,03,27,05,40,6.60
2010,03,27,05,41,6.60
2010,03,27,05,42,6.60
2010,03,27,05,43,6.60
2010,03,27,05,44,6.60
2010,03,27,05,45,6.60
2010,03,27,05,46,6.60
2010,03,27,05,47,6.60
2010,03,27,05,48,6.60
2010,03,27,05,49,6.60
2010,03,27,05,50,6.60
2010,03,27,05,51,6.60
2010,03,27,05,52,6.60
2010,03,27,05,53,6.60
2010,03,27,05,54,6.60
2010,03,27,05,55,6.60
2010,03,27,05,56,6.60
2010,03,27,05,57,6.60
2010,03,27,05,58,6.60
2010,03,27,05,59,6.60
2010,03,27,06,00,6.60
2010,03,27,06,01,6.60
2010,03,27,06,02,6.60
2010,03,27,06,03,6.60
2010,03,27,06,04,6.60
2010,03,27,06,05,6.60
2010,03,27,06,06,6.60
2010,03,27,06,07,6.60
2010,03,27,06,08,6.60
2010,03,27,06,09,6.60
2010,03,27,06,10,6.60
2010,03,27,06,11,6.60
2010,03,27,06,12,6.60
2010,03,27,06,13,6.60
2010,03,27,06,14,6.60
2010,03,27,06,15,6.60
2010,03,27,06,16,6.60
2010,03,27,06,17,6.60
2010,03,27,06,18,6.60
2010,03,27,06,19,6.60
2010,03,27,06,20,6.60
2010,03,27,06,21,6.60
2010,03,27,06,22,6.60
2010,03,27,06,23,6.60
2010,03,27,06,24,6.60
2010,03,27,06,25,6.60
2010,03,27,06,26,6.60
2010,03,27,06,27,6.60
2010,03,27,06,28,6.60
2010,03,27,06,29,6.60
2010,03,27,06,30,6.60
2010,03,27,06,31,6.60
2010,03,27,06,32,6.60
2010,03,27,06,33,6.60
2010,03,27,06,34,6.60
2010,03,27,06,35,6.60
2010,03,27,06,36,6.60
2010,03,27,06,37,6.60
2010,03,27,06,38,6.60
2010,03,27,06,39,6.60
2010,03,27,06,40,6.60
2010,03,27,06,41,6.60
2010,03,27,06,42,6.70
2010,03,27,06,43,6.70
2010,03,27,06,44,6.70
2010,03,27,06,45,6.70
2010,03,27,06,46,6.70
2010,03,27,06,47,6.70
2010,03,27,06,48,6.80
2010,03,27,06,49,6.80
2010,03,27,06,50,6.80
2010,03,27,06,51,6.80
2010,03,27,06,52,6.80
2010,03,27,06,53,6.80
2010,03,27,06,54,6.80
2010,03,27,06,55,6.80
2010,03,27,06,56,6.80
2010,03,27,06,57,6.80
2010,03,27,06,58,6.80
2010,03,27,06,59,6.80
2010,03,27,07,00,6.80
2010,03,27,07,01,6.80
2010,03,27,07,02,6.80
2010,03,27,07,03,6.80
2010,03,27,07,04,6.80
2010,03,27,07,05,6.80
2010,03,27,07,06,6.80
2010,03,27,07,07,6.80
2010,03,27,07,08,6.80
2010,03,27,07,09,6.80
2010,03,27,07,10,6.80
2010,03,27,07,11,6.80
2010,03,27,07,12,6.80
2010,03,27,07,13,6.80
2010,03,27,07,14,6.80
2010,03,27,07,15,6.80
2010,03,27,07,16,6.80
2010,03,27,07,17,6.80
2010,03,27,07,18,6.80
2010,03,27,07,19,6.80
2010,03,27,07,20,6.80
2010,03,27,07,21,6.80
2010,03,27,07,22,6.80
2010,03,27,07,23,6.80
2010,03,27,07,24,6.80
2010,03,27,07,25,6.80
2010,03,27,07,26,6.80
2010,03,27,07,27,6.80
2010,03,27,07,28,6.80
2010,03,27,07,29,6.80
2010,03,27,07,30,6.80
2010,03,27,07,31,6.80
2010,03,27,07,32,6.80
2010,03,27,07,33,6.80
2010,03,27,07,34,6.80
2010,03,27,07,35,6.80
2010,03,27,07,36,6.80
2010,03,27,07,37,6.80
2010,03,27,07,38,6.80
2010,03,27,07,39,6.80
2010,03,27,07,40,6.80
2010,03,27,07,41,6.80
2010,03,27,07,42,6.80
2010,03,27,07,43,6.80
2010,03,27,07,44,6.80
2010,03,27,07,45,6.80
2010,03,27,07,46,6.80
2010,03,27,07,47,6.80
2010,03,27,07,48,6.80
2010,03,27,07,49,6.80
2010,03,27,07,50,6.80
2010,03,27,07,51,6.80
2010,03,27,07,52,6.80
2010,03,27,07,53,6.80
2010,03,27,07,54,6.80
2010,03,27,07,55,6.80
2010,03,27,07,56,6.80
2010,03,27,07,57,6.80
2010,03,27,07,58,6.80
2010,03,27,07,59,6.80
2010,03,27,08,00,6.80
2010,03,27,08,01,6.90
2010,03,27,08,02,6.90
2010,03,27,08,03,6.90
2010,03,27,08,04,6.90
2010,03,27,08,05,6.90
2010,03,27,08,06,6.90
2010,03,27,08,07,6.90
2010,03,27,08,08,6.80
2010,03,27,08,09,6.80
2010,03,27,08,10,6.80
2010,03,27,08,11,6.80
2010,03,27,08,12,6.80
2010,03,27,08,13,6.80
2010,03,27,08,14,6.80
2010,03,27,08,15,6.80
2010,03,27,08,16,6.80
2010,03,27,08,17,6.80
2010,03,27,08,18,6.80
2010,03,27,08,19,6.80
2010,03,27,08,20,6.80
2010,03,27,08,21,6.80
2010,03,27,08,22,6.80
2010,03,27,08,23,6.80
2010,03,27,08,24,6.80
2010,03,27,08,25,6.80
2010,03,27,08,26,6.80
2010,03,27,08,27,6.80
2010,03,27,08,28,6.80
2010,03,27,08,29,6.80
2010,03,27,08,30,6.80
2010,03,27,08,31,6.80
2010,03,27,08,32,6.80
2010,03,27,08,33,6.80
2010,03,27,08,34,6.80
2010,03,27,08,35,6.80
2010,03,27,08,36,6.80
2010,03,27,08,37,6.80
2010,03,27,08,38,6.80
2010,03,27,08,39,6.80
2010,03,27,08,40,6.80
2010,03,27,08,41,6.80
2010,03,27,08,42,6.80
2010,03,27,08,43,6.80
2010,03,27,08,44,6.90
2010,03,27,08,45,6.90
2010,03,27,08,46,6.90
2010,03,27,08,47,6.90
2010,03,27,08,48,6.90
2010,03,27,08,49,6.90
2010,03,27,08,50,6.90
2010,03,27,08,51,7.00
2010,03,27,08,52,7.00
2010,03,27,08,53,7.00
2010,03,27,08,54,7.00
2010,03,27,08,55,7.00
2010,03,27,08,56,7.00
2010,03,27,08,57,7.10
2010,03,27,08,58,7.10
2010,03,27,08,59,7.10
2010,03,27,09,00,7.10
2010,03,27,09,01,7.20
2010,03,27,09,02,7.20
2010,03,27,09,03,7.20
2010,03,27,09,04,7.20
2010,03,27,09,05,7.20
2010,03,27,09,06,7.20
2010,03,27,09,07,7.20
2010,03,27,09,08,7.20
2010,03,27,09,09,7.20
2010,03,27,09,10,7.20
2010,03,27,09,11,7.30
2010,03,27,09,12,7.30
2010,03,27,09,13,7.30
2010,03,27,09,14,7.30
2010,03,27,09,15,7.30
2010,03,27,09,16,7.30
2010,03,27,09,17,7.40
2010,03,27,09,18,7.40
2010,03,27,09,19,7.50
2010,03,27,09,20,7.50
2010,03,27,09,21,7.50
2010,03,27,09,22,7.60
2010,03,27,09,23,7.60
2010,03,27,09,24,7.60
2010,03,27,09,25,7.70
2010,03,27,09,26,7.70
2010,03,27,09,27,7.80
2010,03,27,09,28,7.80
2010,03,27,09,29,7.80
2010,03,27,09,30,7.80
2010,03,27,09,31,7.80
2010,03,27,09,32,7.80
2010,03,27,09,33,7.90
2010,03,27,09,34,7.90
2010,03,27,09,35,7.90
2010,03,27,09,36,8.00
2010,03,27,09,37,8.00
2010,03,27,09,38,8.10
2010,03,27,09,39,8.10
2010,03,27,09,40,8.20
2010,03,27,09,41,8.20
2010,03,27,09,42,8.20
2010,03,27,09,43,8.20
2010,03,27,09,44,8.30
2010,03,27,09,45,8.30
2010,03,27,09,46,8.30
2010,03,27,09,47,8.40
2010,03,27,09,48,8.40
2010,03,27,09,49,8.50
2010,03,27,09,50,8.50
2010,03,27,09,51,8.50
2010,03,27,09,52,8.60
2010,03,27,09,53,8.60
2010,03,27,09,54,8.60
2010,03,27,09,55,8.70
2010,03,27,09,56,8.70
2010,03,27,09,57,8.70
2010,03,27,09,58,8.70
2010,03,27,09,59,8.70
2010,03,27,10,00,8.80
2010,03,27,10,01,8.80
2010,03,27,10,02,8.80
2010,03,27,10,03,8.80
2010,03,27,10,04,8.80
2010,03,27,10,05,8.80
2010,03,27,10,06,8.90
2010,03,27,10,07,8.90
2010,03,27,10,08,8.90
2010,03,27,10,09,8.90
2010,03,27,10,10,9.00
2010,03,27,10,11,9.00
2010,03,27,10,12,9.00
2010,03,27,10,13,9.10
2010,03,27,10,14,9.10
2010,03,27,10,15,9.10
2010,03,27,10,16,9.10
2010,03,27,10,17,9.20
2010,03,27,10,18,9.20
2010,03,27,10,19,9.20
2010,03,27,10,20,9.20
2010,03,27,10,21,9.30
2010,03,27,10,22,9.30
2010,03,27,10,23,9.40
2010,03,27,10,24,9.40
2010,03,27,10,25,9.50
2010,03,27,10,26,9.50
2010,03,27,10,27,9.50
2010,03,27,10,28,9.60
2010,03,27,10,29,9.60
2010,03,27,10,30,9.60
2010,03,27,10,31,9.60
2010,03,27,10,32,9.60
2010,03,27,10,33,9.60
2010,03,27,10,34,9.50
2010,03,27,10,35,9.50
2010,03,27,10,36,9.50
2010,03,27,10,37,9.50
2010,03,27,10,38,9.60
2010,03,27,10,39,9.50
2010,03,27,10,40,9.50
2010,03,27,10,41,9.50
2010,03,27,10,42,9.60
2010,03,27,10,43,9.60
2010,03,27,10,44,9.70
2010,03,27,10,45,9.70
2010,03,27,10,46,9.80
2010,03,27,10,47,9.80
2010,03,27,10,48,9.90
2010,03,27,10,49,9.90
2010,03,27,10,50,9.90
2010,03,27,10,51,9.90
2010,03,27,10,52,9.90
2010,03,27,10,53,9.90
2010,03,27,10,54,9.90
2010,03,27,10,55,9.90
2010,03,27,10,56,9.90
2010,03,27,10,57,9.90
2010,03,27,10,58,9.90
2010,03,27,10,59,10.00
2010,03,27,11,00,10.00
2010,03,27,11,01,9.90
2010,03,27,11,02,9.90
2010,03,27,11,03,9.90
2010,03,27,11,04,9.90
2010,03,27,11,05,9.90
2010,03,27,11,06,9.90
2010,03,27,11,07,9.90
2010,03,27,11,08,10.00
2010,03,27,11,09,10.10
2010,03,27,11,10,10.10
2010,03,27,11,11,10.10
2010,03,27,11,12,10.10
2010,03,27,11,13,10.10
2010,03,27,11,14,10.10
2010,03,27,11,15,10.10
2010,03,27,11,16,10.10
2010,03,27,11,17,10.10
2010,03,27,11,18,10.10
2010,03,27,11,19,10.10
2010,03,27,11,20,10.20
2010,03,27,11,21,10.20
2010,03,27,11,22,10.30
2010,03,27,11,23,10.40
2010,03,27,11,24,10.40
2010,03,27,11,25,10.30
2010,03,27,11,26,10.30
2010,03,27,11,27,10.30
2010,03,27,11,28,10.40
2010,03,27,11,29,10.40
2010,03,27,11,30,10.40
2010,03,27,11,31,10.40
2010,03,27,11,32,10.40
2010,03,27,11,33,10.30
2010,03,27,11,34,10.30
2010,03,27,11,35,10.20
2010,03,27,11,36,10.20
2010,03,27,11,37,10.20
2010,03,27,11,38,10.20
2010,03,27,11,39,10.30
2010,03,27,11,40,10.30
2010,03,27,11,41,10.40
2010,03,27,11,42,10.40
2010,03,27,11,43,10.40
2010,03,27,11,44,10.40
2010,03,27,11,45,10.40
2010,03,27,11,46,10.40
2010,03,27,11,47,10.50
2010,03,27,11,48,10.60
2010,03,27,11,49,10.60
2010,03,27,11,50,10.60
2010,03,27,11,51,10.60
2010,03,27,11,52,10.70
2010,03,27,11,53,10.80
2010,03,27,11,54,10.80
2010,03,27,11,55,10.80
2010,03,27,11,56,10.90
2010,03,27,11,57,10.90
2010,03,27,11,58,10.90
2010,03,27,11,59,10.90
2010,03,27,12,00,11.00
2010,03,27,12,01,11.10
2010,03,27,12,02,11.10
2010,03,27,12,03,11.10
2010,03,27,12,04,11.10
2010,03,27,12,05,11.20
2010,03,27,12,06,11.20
2010,03,27,12,07,11.20
2010,03,27,12,08,11.20
2010,03,27,12,09,11.20
2010,03,27,12,10,11.20
2010,03,27,12,11,11.20
2010,03,27,12,12,11.20
2010,03,27,12,13,11.10
2010,03,27,12,14,11.10
2010,03,27,12,15,11.10
2010,03,27,12,16,11.10
2010,03,27,12,17,11.20
2010,03,27,12,18,11.20
2010,03,27,12,19,11.30
2010,03,27,12,20,11.30
2010,03,27,12,21,11.40
2010,03,27,12,22,11.40
2010,03,27,12,23,11.40
2010,03,27,12,24,11.40
2010,03,27,12,25,11.40
2010,03,27,12,26,11.40
2010,03,27,12,27,11.40
2010,03,27,12,28,11.40
2010,03,27,12,29,11.40
2010,03,27,12,30,11.50
2010,03,27,12,31,11.60
2010,03,27,12,32,11.70
2010,03,27,12,33,11.70
2010,03,27,12,34,11.80
2010,03,27,12,35,11.80
2010,03,27,12,36,11.80
2010,03,27,12,37,11.80
2010,03,27,12,38,11.80
2010,03,27,12,39,11.80
2010,03,27,12,40,11.80
2010,03,27,12,41,11.80
2010,03,27,12,42,11.80
2010,03,27,12,43,11.80
2010,03,27,12,44,11.80
2010,03,27,12,45,11.80
2010,03,27,12,46,11.80
2010,03,27,12,47,11.80
2010,03,27,12,48,11.80
2010,03,27,12,49,11.80
2010,03,27,12,50,11.80
2010,03,27,12,51,11.90
2010,03,27,12,52,11.90
2010,03,27,12,53,12.00
2010,03,27,12,54,12.00
2010,03,27,12,55,12.10
2010,03,27,12,56,12.10
2010,03,27,12,57,12.10
2010,03,27,12,58,12.10
2010,03,27,12,59,12.10
2010,03,27,13,00,12.00
2010,03,27,13,01,12.10
2010,03,27,13,02,12.20
2010,03,27,13,03,12.20
2010,03,27,13,04,12.30
2010,03,27,13,05,12.30
2010,03,27,13,06,12.30
2010,03,27,13,07,12.30
2010,03,27,13,08,12.30
2010,03,27,13,09,12.30
2010,03,27,13,10,12.30
2010,03,27,13,11,12.20
2010,03,27,13,12,12.20
2010,03,27,13,13,12.30
2010,03,27,13,14,12.30
2010,03,27,13,15,12.30
2010,03,27,13,16,12.30
2010,03,27,13,17,12.30
2010,03,27,13,18,12.30
2010,03,27,13,19,12.30
2010,03,27,13,20,12.30
2010,03,27,13,21,12.30
2010,03,27,13,22,12.30
2010,03,27,13,23,12.40
2010,03,27,13,24,12.40
2010,03,27,13,25,12.40
2010,03,27,13,26,12.40
2010,03,27,13,27,12.40
2010,03,27,13,28,12.30
2010,03,27,13,29,12.30
2010,03,27,13,30,12.30
2010,03,27,13,31,12.30
2010,03,27,13,32,12.30
2010,03,27,13,33,12.30
2010,03,27,13,34,12.30
2010,03,27,13,35,12.40
2010,03,27,13,36,12.50
2010,03,27,13,37,12.50
2010,03,27,13,38,12.60
2010,03,27,13,39,12.50
2010,03,27,13,40,12.50
2010,03,27,13,41,12.60
2010,03,27,13,42,12.60
2010,03,27,13,43,12.60
2010,03,27,13,44,12.60
2010,03,27,13,45,12.60
2010,03,27,13,46,12.70
2010,03,27,13,47,12.80
2010,03,27,13,48,12.80
2010,03,27,13,49,12.90
2010,03,27,13,50,13.00
2010,03,27,13,51,13.00
2010,03,27,13,52,13.00
2010,03,27,13,53,13.00
2010,03,27,13,54,12.90
2010,03,27,13,55,12.80
2010,03,27,13,56,12.90
2010,03,27,13,57,12.90
2010,03,27,13,58,12.80
2010,03,27,13,59,12.90
2010,03,27,14,00,12.90
2010,03,27,14,01,13.00
2010,03,27,14,02,13.00
2010,03,27,14,03,13.00
2010,03,27,14,04,13.00
2010,03,27,14,05,13.00
2010,03,27,14,06,13.00
2010,03,27,14,07,13.00
2010,03,27,14,08,13.00
2010,03,27,14,09,13.00
2010,03,27,14,10,13.00
2010,03,27,14,11,13.00
2010,03,27,14,12,12.90
2010,03,27,14,13,12.90
2010,03,27,14,14,12.90
2010,03,27,14,15,12.90
2010,03,27,14,16,12.90
2010,03,27,14,17,12.90
2010,03,27,14,18,12.90
2010,03,27,14,19,12.80
2010,03,27,14,20,12.80
2010,03,27,14,21,12.70
2010,03,27,14,22,12.70
2010,03,27,14,23,12.70
2010,03,27,14,24,12.70
2010,03,27,14,25,12.70
2010,03,27,14,26,12.80
2010,03,27,14,27,12.80
2010,03,27,14,28,12.80
2010,03,27,14,29,12.80
2010,03,27,14,30,13.00
2010,03,27,14,31,13.00
2010,03,27,14,32,13.10
2010,03,27,14,33,13.10
2010,03,27,14,34,13.20
2010,03,27,14,35,13.30
2010,03,27,14,36,13.30
2010,03,27,14,37,13.30
2010,03,27,14,38,13.30
2010,03,27,14,39,13.30
2010,03,27,14,40,13.30
2010,03,27,14,41,13.30
2010,03,27,14,42,13.30
2010,03,27,14,43,13.30
2010,03,27,14,44,13.30
2010,03,27,14,45,13.20
2010,03,27,14,46,13.20
2010,03,27,14,47,13.20
2010,03,27,14,48,13.20
2010,03,27,14,49,13.20
2010,03,27,14,50,13.30
2010,03,27,14,51,13.30
2010,03,27,14,52,13.30
2010,03,27,14,53,13.40
2010,03,27,14,54,13.40
2010,03,27,14,55,13.50
2010,03,27,14,56,13.40
2010,03,27,14,57,13.40
2010,03,27,14,58,13.40
2010,03,27,14,59,13.40
2010,03,27,15,00,13.40
2010,03,27,15,01,13.30
2010,03,27,15,02,13.30
2010,03,27,15,03,13.30
2010,03,27,15,04,13.30
2010,03,27,15,05,13.30
2010,03,27,15,06,13.30
2010,03,27,15,07,13.30
2010,03,27,15,08,13.30
2010,03,27,15,09,13.20
2010,03,27,15,10,13.20
2010,03,27,15,11,13.20
2010,03,27,15,12,13.20
2010,03,27,15,13,13.20
2010,03,27,15,14,13.20
2010,03,27,15,15,13.30
2010,03,27,15,16,13.30
2010,03,27,15,17,13.30
2010,03,27,15,18,13.30
2010,03,27,15,19,13.30
2010,03,27,15,20,13.30
2010,03,27,15,21,13.30
2010,03,27,15,22,13.30
2010,03,27,15,23,13.30
2010,03,27,15,24,13.30
2010,03,27,15,25,13.30
2010,03,27,15,26,13.30
2010,03,27,15,27,13.30
2010,03,27,15,28,13.30
2010,03,27,15,29,13.30
2010,03,27,15,30,13.30
2010,03,27,15,31,13.30
2010,03,27,15,32,13.30
2010,03,27,15,33,13.30
2010,03,27,15,34,13.20
2010,03,27,15,35,13.20
2010,03,27,15,36,13.20
2010,03,27,15,37,13.20
2010,03,27,15,38,13.20
2010,03,27,15,39,13.20
2010,03,27,15,40,13.20
2010,03,27,15,41,13.20
2010,03,27,15,42,13.30
2010,03,27,15,43,13.30
2010,03,27,15,44,13.30
2010,03,27,15,45,13.30
2010,03,27,15,46,13.30
2010,03,27,15,47,13.30
2010,03,27,15,48,13.30
2010,03,27,15,49,13.40
2010,03,27,15,50,13.40
2010,03,27,15,51,13.40
2010,03,27,15,52,13.40
2010,03,27,15,53,13.40
2010,03,27,15,54,13.40
2010,03,27,15,55,13.50
2010,03,27,15,56,13.50
2010,03,27,15,57,13.50
2010,03,27,15,58,13.50
2010,03,27,15,59,13.60
2010,03,27,16,00,13.60
2010,03,27,16,01,13.60
2010,03,27,16,02,13.60
2010,03,27,16,03,13.60
2010,03,27,16,04,13.60
2010,03,27,16,05,13.60
2010,03,27,16,06,13.50
2010,03,27,16,07,13.50
2010,03,27,16,08,13.50
2010,03,27,16,09,13.50
2010,03,27,16,10,13.50
2010,03,27,16,11,13.50
2010,03,27,16,12,13.50
2010,03,27,16,13,13.50
2010,03,27,16,14,13.60
2010,03,27,16,15,13.60
2010,03,27,16,16,13.60
2010,03,27,16,17,13.70
2010,03,27,16,18,13.70
2010,03,27,16,19,13.70
2010,03,27,16,20,13.70
2010,03,27,16,21,13.90
2010,03,27,16,22,13.90
2010,03,27,16,23,14.00
2010,03,27,16,24,14.00
2010,03,27,16,25,14.00
2010,03,27,16,26,14.00
2010,03,27,16,27,14.00
2010,03,27,16,28,13.90
2010,03,27,16,29,13.90
2010,03,27,16,30,13.90
2010,03,27,16,31,14.00
2010,03,27,16,32,13.90
2010,03,27,16,33,14.00
2010,03,27,16,34,14.00
2010,03,27,16,35,14.00
2010,03,27,16,36,14.00
2010,03,27,16,37,14.00
2010,03,27,16,38,14.00
2010,03,27,16,39,14.10
2010,03,27,16,40,14.10
2010,03,27,16,41,14.00
2010,03,27,16,42,14.00
2010,03,27,16,43,14.00
2010,03,27,16,44,14.00
2010,03,27,16,45,14.10
2010,03,27,16,46,14.10
2010,03,27,16,47,14.10
2010,03,27,16,48,14.10
2010,03,27,16,49,14.10
2010,03,27,16,50,14.00
2010,03,27,16,51,14.00
2010,03,27,16,52,14.10
2010,03,27,16,53,14.10
2010,03,27,16,54,14.20
2010,03,27,16,55,14.20
2010,03,27,16,56,14.20
2010,03,27,16,57,14.20
2010,03,27,16,58,14.20
2010,03,27,16,59,14.10
2010,03,27,17,00,14.00
2010,03,27,17,01,14.00
2010,03,27,17,02,13.90
2010,03,27,17,03,13.80
2010,03,27,17,04,13.80
2010,03,27,17,05,13.70
2010,03,27,17,06,13.70
2010,03,27,17,07,13.70
2010,03,27,17,08,13.70
2010,03,27,17,09,13.70
2010,03,27,17,10,13.70
2010,03,27,17,11,13.70
2010,03,27,17,12,13.70
2010,03,27,17,13,13.70
2010,03,27,17,14,13.70
2010,03,27,17,15,13.70
2010,03,27,17,16,13.70
2010,03,27,17,17,13.70
2010,03,27,17,18,13.70
2010,03,27,17,19,13.80
2010,03,27,17,20,13.80
2010,03,27,17,21,13.80
2010,03,27,17,22,13.80
2010,03,27,17,23,13.80
2010,03,27,17,24,13.90
2010,03,27,17,25,13.90
2010,03,27,17,26,13.80
2010,03,27,17,27,13.80
2010,03,27,17,28,13.80
2010,03,27,17,29,13.80
2010,03,27,17,30,13.80
2010,03,27,17,31,13.80
2010,03,27,17,32,13.80
2010,03,27,17,33,13.80
2010,03,27,17,34,13.80
2010,03,27,17,35,13.80
2010,03,27,17,36,13.80
2010,03,27,17,37,13.90
2010,03,27,17,38,13.90
2010,03,27,17,39,13.90
2010,03,27,17,40,13.90
2010,03,27,17,41,14.00
2010,03,27,17,42,14.00
2010,03,27,17,43,14.00
2010,03,27,17,44,14.00
2010,03,27,17,45,14.10
2010,03,27,17,46,14.10
2010,03,27,17,47,14.20
2010,03,27,17,48,14.20